Tracking 18987 objects as of 25-Feb-2018
HD Live streaming from Space Station
objects crossing your sky now

FENGYUN 1C DEB

Track FENGYUN 1C DEB now!
10-day predictions


NORAD ID: 30558
Int'l Code: 1999-025AKY
Perigee: 852.3 km
Apogee: 1,531.4 km
Inclination: 99.5 °
Period: 109.1 minutes
Semi major axis: 7562 km
RCS: 0.0146 m2 (small)
Launch date: May 10, 1999
Source: People's Republic of China (PRC)
Launch site: Taiyaun Space Center, China (TSC)

Note: This is SATELLITE DEBRIS
aabbcc
Your satellite tracking list
Your tracking list is empty




NASA's NSSDC Master Catalog

Two Line Element Set (TLE):
1 30558U 99025AKY 18054.93379057 +.00000251 +00000-0 +42924-3 0  9999
2 30558 099.4542 056.7781 0448970 250.9958 135.6265 13.19994780531008
Source of the keplerian elements: AFSPC